Tracking 20093 objects as of 14-Dec-2019
HD Live streaming from Space Station
objects crossing your sky now

SL-8 DEB


SL-8 DEB is no longer on orbit


NORAD ID: 38844
Int'l Code: 2006-060C
Perigee: N/A
Apogee: N/A
Inclination: N/A
Period: N/A
Semi major axis: N/A
RCS: N/A
Launch date: December 19, 2006
Source: Commonwealth of Independent States (former USSR) (CIS)
Launch site: PLESETSK MISSILE AND SPACE COMPLEX (PKMTR)
Decay date: 2014-04-06

Note: This is SATELLITE DEBRIS
aabbcc
Your satellite tracking list
Your tracking list is empty




NASA's NSSDC Master Catalog

Two Line Element Set (TLE):
1 38844U 06060C   14057.05508279  .00184378  00000-0  10218-2 0  9997
2 38844 098.0825 005.3750 0006133 290.8718 131.0782 15.79016824405216
Source of the keplerian elements: AFSPC